カタログに戻る

COSMOS 249 DEB

運用中LEO
NORAD 3755·DEBRIS·🇷🇺 Russia

打ち上げ Oct 20, 1968 から Baikonur Cosmodrome

Loading…

次のパス (今後24時間)

TLE

経年Source: Space-Track

元期: Sep 12, 2026, 02:37 UTC

1 03755U 68091AT  26255.10925652  .00000057  00000-0  16450-3 0  9995
2 03755  62.2442 295.2420 0774543 134.9772 231.6735 12.81758579654598

AllMySatでCOSMOS 249 DEBをリアルタイム追跡

Download on the App Store